{"data":{"norad_id":45230,"epoch":"2026-05-25T00:05:45.407328Z","epoch_age_seconds":78179,"freshness":"FRESH","line1":"1 45230U 20012BE  26145.00399777  .00043747  00000+0  10012-2 0  9999","line2":"2 45230  53.1559   0.2153 0003329 155.8526 204.2637 15.42388838347271","mean_motion":15.42388838,"eccentricity":0.0003329,"inclination_deg":53.1559,"raan_deg":0.2153,"arg_perigee_deg":155.8526,"mean_anomaly_deg":204.2637,"bstar":0.0010012,"rev_number":34727,"period_min":93.361671487926,"perigee_km":436.7918315684,"apogee_km":441.33072218114,"semimajor_km":6817.1982768748,"source":"CELESTRAK","updated_at":"2026-05-25T13:38:16.385705Z"}}